{"data":{"norad_id":62705,"epoch":"2026-09-22T11:15:36.416736Z","epoch_age_seconds":149452,"freshness":"FRESH","line1":"1 62705U 25009DA  26265.46917149  .00003196  00000+0  25643-3 0  9999","line2":"2 62705  97.8574 353.0631 0001177  91.8923 268.2435 15.00823612 92279","mean_motion":15.00823612,"eccentricity":0.0001177,"inclination_deg":97.8574,"raan_deg":353.0631,"arg_perigee_deg":91.8923,"mean_anomaly_deg":268.2435,"bstar":0.00025643,"rev_number":9227,"period_min":95.947317758484,"perigee_km":563.53814905926,"apogee_km":565.17241174207,"semimajor_km":6942.4922804007,"source":"CELESTRAK","updated_at":"2026-09-23T09:00:21.586743Z"}}